DLH1CF EDLP-LFMN

Flight info

Callsign DLH1CF
Flight time 2h 16m
Altitude 38000
Route WRB1X WRB N850 XAROL DCT BOMBI DCT GIGET DCT ABUKA DCT KRH DCT NATOR/N0443F390 DCT TRA DCT RIPUS DCT GERSA DCT SOSON DCT ODINA DCT ENOBA DCT ASBOP/N0344F190 Z185 BORDI
Aircraft A20N/M-SDE2E3FGHIRWXY/LB1

Departure

Time 2026-05-05 07:14
Airport Paderborn Lippstadt Airport (EDLP)

Arrival

Time 2026-05-05 09:30
Airport Nice-Côte d'Azur Airport (LFMN)
Time Latitude Longitude Altitude Speed Heading
2026-05-05 06:34 51.61083 8.61862 731 ft 0 kts 147°
2026-05-05 07:02 51.61098 8.61847 730 ft 4 kts 153°
2026-05-05 07:02 51.61123 8.61831 730 ft 4 kts 173°
2026-05-05 07:02 51.61146 8.61837 730 ft 4 kts 230°
2026-05-05 07:03 51.61152 8.61848 729 ft 0 kts 237°
2026-05-05 07:07 51.61146 8.61832 730 ft 2 kts 238°
2026-05-05 07:07 51.61133 8.61804 729 ft 5 kts 231°
2026-05-05 07:07 51.61107 8.61755 730 ft 7 kts 232°
2026-05-05 07:07 51.61100 8.61740 730 ft 2 kts 234°
2026-05-05 07:08 51.61088 8.61707 730 ft 5 kts 242°
2026-05-05 07:08 51.61068 8.61645 729 ft 7 kts 241°
2026-05-05 07:08 51.61036 8.61566 730 ft 9 kts 236°
2026-05-05 07:08 51.61002 8.61480 730 ft 7 kts 237°
2026-05-05 07:09 51.60970 8.61399 730 ft 10 kts 238°
2026-05-05 07:09 51.60965 8.61285 727 ft 13 kts 283°
2026-05-05 07:09 51.60983 8.61118 721 ft 19 kts 268°
2026-05-05 07:09 51.60925 8.60935 719 ft 19 kts 236°
2026-05-05 07:10 51.60867 8.60790 713 ft 16 kts 235°
2026-05-05 07:10 51.60810 8.60650 715 ft 5 kts 236°
2026-05-05 07:10 51.60785 8.60590 713 ft 8 kts 237°
2026-05-05 07:10 51.60758 8.60499 712 ft 10 kts 259°
2026-05-05 07:11 51.60772 8.60409 714 ft 4 kts 299°
2026-05-05 07:11 51.60788 8.60374 717 ft 4 kts 314°
2026-05-05 07:11 51.60798 8.60362 716 ft 0 kts 324°
2026-05-05 07:11 51.60799 8.60361 715 ft 1 kts 324°
2026-05-05 07:12 51.60806 8.60353 716 ft 1 kts 326°
2026-05-05 07:12 51.60819 8.60344 717 ft 4 kts 344°
2026-05-05 07:12 51.60848 8.60347 714 ft 3 kts 11°
2026-05-05 07:12 51.60897 8.60393 718 ft 14 kts 41°
2026-05-05 07:13 51.60918 8.60433 714 ft 0 kts 54°
2026-05-05 07:13 51.60941 8.60484 718 ft 30 kts 56°
2026-05-05 07:13 51.61196 8.61118 714 ft 103 kts 56°
2026-05-05 07:14 51.61706 8.62353 699 ft 160 kts 56°
2026-05-05 07:14 51.62339 8.63818 1312 ft 156 kts 53°
2026-05-05 07:14 51.63057 8.65356 1563 ft 193 kts 52°
2026-05-05 07:14 51.63805 8.67265 2123 ft 200 kts 68°
2026-05-05 07:15 51.64092 8.69368 3054 ft 195 kts 88°
2026-05-05 07:15 51.63971 8.71613 3639 ft 209 kts 101°
2026-05-05 07:15 51.63616 8.73993 4153 ft 228 kts 108°
2026-05-05 07:15 51.62995 8.76494 4482 ft 254 kts 119°
2026-05-05 07:16 51.61955 8.79008 4642 ft 287 kts 131°
2026-05-05 07:16 51.60482 8.81396 4691 ft 320 kts 141°
2026-05-05 07:16 51.58724 8.83535 5085 ft 307 kts 147°
2026-05-05 07:16 51.56985 8.85259 5254 ft 284 kts 150°
2026-05-05 07:17 51.55273 8.86747 5112 ft 276 kts 165°
2026-05-05 07:17 51.53425 8.86818 5522 ft 264 kts 191°
2026-05-05 07:17 51.51567 8.86551 6121 ft 275 kts 177°
2026-05-05 07:17 51.49738 8.87436 6876 ft 288 kts 151°
2026-05-05 07:18 51.48163 8.89728 6782 ft 331 kts 127°
2026-05-05 07:18 51.47122 8.93293 5900 ft 391 kts 105°
2026-05-05 07:18 51.46562 8.97618 6029 ft 390 kts 101°
2026-05-05 07:18 51.46063 9.01849 5800 ft 384 kts 103°
2026-05-05 07:19 51.45244 9.05866 6222 ft 376 kts 114°
2026-05-05 07:19 51.44130 9.09637 6681 ft 375 kts 123°
2026-05-05 07:19 51.42558 9.12990 7181 ft 379 kts 127°
2026-05-05 07:19 51.41079 9.16532 7940 ft 384 kts 123°
2026-05-05 07:20 51.39642 9.20158 8636 ft 389 kts 123°
2026-05-05 07:20 51.38146 9.23796 9349 ft 393 kts 129°
2026-05-05 07:20 51.36244 9.26833 10019 ft 393 kts 145°
2026-05-05 07:20 51.33861 9.28920 10810 ft 387 kts 161°
2026-05-05 07:21 51.31347 9.29817 11486 ft 354 kts 178°
2026-05-05 07:21 51.29014 9.29442 11769 ft 327 kts 197°
2026-05-05 07:21 51.26831 9.28334 11898 ft 333 kts 198°
2026-05-05 07:21 51.24622 9.27241 11893 ft 333 kts 197°
2026-05-05 07:22 51.22386 9.26222 12144 ft 335 kts 196°
2026-05-05 07:22 51.20132 9.25257 12997 ft 334 kts 195°
2026-05-05 07:22 51.17907 9.24338 13822 ft 336 kts 195°
2026-05-05 07:22 51.15623 9.23411 14456 ft 341 kts 195°
2026-05-05 07:23 51.13306 9.22479 15109 ft 346 kts 195°
2026-05-05 07:23 51.10959 9.21534 15763 ft 350 kts 195°
2026-05-05 07:23 51.08586 9.20578 16394 ft 354 kts 196°
2026-05-05 07:23 51.06183 9.19610 17032 ft 358 kts 196°
2026-05-05 07:24 51.03753 9.18632 17655 ft 363 kts 196°
2026-05-05 07:24 51.01292 9.17643 18258 ft 367 kts 196°
2026-05-05 07:24 50.98808 9.16645 18827 ft 370 kts 196°
2026-05-05 07:24 50.96340 9.15654 19414 ft 372 kts 196°
2026-05-05 07:25 50.93823 9.14644 20003 ft 374 kts 196°
2026-05-05 07:25 50.91285 9.13627 20558 ft 378 kts 196°
2026-05-05 07:25 50.88727 9.12604 21110 ft 381 kts 196°
2026-05-05 07:25 50.86153 9.11576 21658 ft 383 kts 198°
2026-05-05 07:26 50.83567 9.10462 22152 ft 387 kts 200°
2026-05-05 07:26 50.80971 9.09293 22666 ft 389 kts 200°
2026-05-05 07:26 50.78348 9.08157 23179 ft 392 kts 199°
2026-05-05 07:26 50.75734 9.07089 23653 ft 395 kts 194°
2026-05-05 07:27 50.73046 9.06138 24147 ft 396 kts 193°
2026-05-05 07:27 50.70351 9.05216 24446 ft 403 kts 194°
2026-05-05 07:27 50.67696 9.04257 25038 ft 400 kts 195°
2026-05-05 07:27 50.64988 9.03234 25528 ft 401 kts 195°
2026-05-05 07:28 50.62271 9.02176 25949 ft 403 kts 196°
2026-05-05 07:28 50.59547 9.01103 26388 ft 405 kts 196°
2026-05-05 07:28 50.56811 9.00021 26814 ft 406 kts 196°
2026-05-05 07:28 50.54059 8.98933 27235 ft 408 kts 196°
2026-05-05 07:29 50.51305 8.97845 27689 ft 408 kts 196°
2026-05-05 07:29 50.48588 8.96773 28110 ft 410 kts 196°
2026-05-05 07:29 50.45813 8.95681 28443 ft 412 kts 197°
2026-05-05 07:29 50.43030 8.94585 28799 ft 413 kts 197°
2026-05-05 07:30 50.40235 8.93487 29153 ft 415 kts 197°
2026-05-05 07:30 50.34690 8.91319 29821 ft 418 kts 197°
2026-05-05 07:30 50.32120 8.90318 30107 ft 420 kts 197°
2026-05-05 07:31 50.29284 8.89211 30441 ft 420 kts 196°
2026-05-05 07:31 50.26487 8.88119 30774 ft 420 kts 196°
2026-05-05 07:31 50.23656 8.87045 30894 ft 420 kts 196°
2026-05-05 07:31 50.20814 8.85942 31172 ft 421 kts 196°
2026-05-05 07:32 50.17986 8.84833 31565 ft 420 kts 197°
2026-05-05 07:32 50.15160 8.83728 31984 ft 418 kts 197°
2026-05-05 07:32 50.12347 8.82635 32379 ft 416 kts 197°
2026-05-05 07:32 50.09546 8.81551 32773 ft 414 kts 197°
2026-05-05 07:33 50.06756 8.80476 33122 ft 413 kts 195°
2026-05-05 07:33 50.03929 8.79658 33460 ft 414 kts 191°
2026-05-05 07:33 50.01075 8.79076 33804 ft 413 kts 191°
2026-05-05 07:33 49.98233 8.78494 34088 ft 412 kts 191°
2026-05-05 07:34 49.95436 8.77917 34330 ft 411 kts 191°
2026-05-05 07:34 49.92596 8.77328 34563 ft 411 kts 191°
2026-05-05 07:34 49.89766 8.76740 34786 ft 411 kts 191°
2026-05-05 07:34 49.86935 8.76152 35019 ft 410 kts 191°
2026-05-05 07:35 49.84110 8.75565 35247 ft 409 kts 190°
2026-05-05 07:35 49.81287 8.74980 35471 ft 409 kts 190°
2026-05-05 07:35 49.78466 8.74396 35670 ft 409 kts 190°
2026-05-05 07:35 49.75645 8.73814 35875 ft 409 kts 190°
2026-05-05 07:36 49.72865 8.73241 36078 ft 409 kts 190°
2026-05-05 07:36 49.70047 8.72660 36267 ft 408 kts 190°
2026-05-05 07:36 49.67229 8.72085 36464 ft 408 kts 190°
2026-05-05 07:36 49.64413 8.71515 36652 ft 408 kts 189°
2026-05-05 07:37 49.61595 8.70946 36794 ft 409 kts 189°
2026-05-05 07:37 49.58775 8.70378 36955 ft 409 kts 189°
2026-05-05 07:37 49.55959 8.69811 37125 ft 408 kts 189°
2026-05-05 07:37 49.53177 8.69252 37287 ft 408 kts 189°
2026-05-05 07:38 49.50362 8.68686 37420 ft 409 kts 189°
2026-05-05 07:38 49.47543 8.68120 37572 ft 409 kts 189°
2026-05-05 07:38 49.44723 8.67554 37721 ft 409 kts 189°
2026-05-05 07:38 49.41906 8.66984 37847 ft 409 kts 189°
2026-05-05 07:39 49.36246 8.65834 37883 ft 411 kts 189°
2026-05-05 07:39 49.30589 8.64692 37883 ft 410 kts 189°
2026-05-05 07:40 49.24972 8.63561 37875 ft 410 kts 189°
2026-05-05 07:40 49.19317 8.62425 37860 ft 410 kts 189°
2026-05-05 07:41 49.13618 8.61282 37874 ft 415 kts 189°
2026-05-05 07:41 49.07914 8.60142 37870 ft 412 kts 189°
2026-05-05 07:42 49.02268 8.59016 37870 ft 412 kts 189°
2026-05-05 07:42 48.96613 8.57585 37872 ft 413 kts 193°
2026-05-05 07:43 48.90982 8.55737 37875 ft 414 kts 193°
2026-05-05 07:43 48.85359 8.53909 37875 ft 413 kts 193°
2026-05-05 07:44 48.79776 8.52106 37876 ft 413 kts 193°
2026-05-05 07:44 48.74152 8.50296 37863 ft 413 kts 193°
2026-05-05 07:45 48.68529 8.48490 37864 ft 413 kts 193°
2026-05-05 07:45 48.62896 8.46684 37865 ft 414 kts 193°
2026-05-05 07:46 48.57296 8.44893 37870 ft 414 kts 193°
2026-05-05 07:46 48.51650 8.43092 37875 ft 415 kts 193°
2026-05-05 07:47 48.45999 8.41293 37878 ft 416 kts 193°
2026-05-05 07:47 48.40336 8.39495 37884 ft 416 kts 193°
2026-05-05 07:48 48.34703 8.37710 37878 ft 417 kts 193°
2026-05-05 07:48 48.29012 8.35910 37883 ft 418 kts 193°
2026-05-05 07:49 48.23312 8.34112 37884 ft 419 kts 193°
2026-05-05 07:49 48.18244 8.33052 37887 ft 421 kts 185°
2026-05-05 07:50 48.12810 8.33186 37884 ft 423 kts 176°
2026-05-05 07:50 48.07244 8.34458 37883 ft 424 kts 172°
2026-05-05 07:51 48.01414 8.35897 37884 ft 425 kts 173°
2026-05-05 07:51 47.95579 8.37309 37887 ft 425 kts 173°
2026-05-05 07:52 47.89742 8.38714 37885 ft 425 kts 173°
2026-05-05 07:52 47.83938 8.40109 37886 ft 425 kts 173°
2026-05-05 07:53 47.78092 8.41510 37892 ft 426 kts 173°
2026-05-05 07:53 47.72250 8.42907 37882 ft 425 kts 173°
2026-05-05 07:54 47.66396 8.44096 37900 ft 424 kts 176°
2026-05-05 07:54 47.60566 8.44943 37910 ft 424 kts 176°
2026-05-05 07:55 47.54689 8.45804 37919 ft 424 kts 176°
2026-05-05 07:55 47.48812 8.46668 37913 ft 424 kts 176°
2026-05-05 07:56 47.42938 8.47530 37915 ft 424 kts 176°
2026-05-05 07:56 47.37104 8.48383 37915 ft 424 kts 176°
2026-05-05 07:57 47.31232 8.49241 37917 ft 424 kts 176°
2026-05-05 07:57 47.25359 8.50097 37914 ft 424 kts 176°
2026-05-05 07:58 47.19487 8.50953 37915 ft 424 kts 176°
2026-05-05 07:58 47.13614 8.51808 37918 ft 424 kts 176°
2026-05-05 07:59 47.07780 8.52654 37925 ft 424 kts 176°
2026-05-05 07:59 47.01908 8.53505 37916 ft 423 kts 177°
2026-05-05 08:00 46.96047 8.54350 37937 ft 423 kts 177°
2026-05-05 08:00 46.90189 8.55194 37933 ft 424 kts 177°
2026-05-05 08:01 46.84322 8.56038 37934 ft 423 kts 177°
2026-05-05 08:01 46.78484 8.56880 37974 ft 425 kts 177°
2026-05-05 08:02 46.72603 8.57718 38002 ft 424 kts 177°
2026-05-05 08:02 46.66745 8.58554 37983 ft 422 kts 177°
2026-05-05 08:03 46.60867 8.59389 38001 ft 427 kts 177°
2026-05-05 08:03 46.55000 8.60223 38012 ft 426 kts 177°
2026-05-05 08:04 46.49105 8.61059 38017 ft 426 kts 177°
2026-05-05 08:04 46.43202 8.61896 38031 ft 426 kts 177°
2026-05-05 08:05 46.37298 8.62727 38028 ft 426 kts 177°
2026-05-05 08:05 46.31435 8.63553 38029 ft 426 kts 177°
2026-05-05 08:06 46.25531 8.64382 38029 ft 426 kts 178°
2026-05-05 08:06 46.19627 8.65210 38033 ft 426 kts 178°
2026-05-05 08:07 46.13716 8.66022 38030 ft 427 kts 179°
2026-05-05 08:07 46.07818 8.65951 38019 ft 421 kts 188°
2026-05-05 08:08 46.02030 8.64803 38014 ft 419 kts 191°
2026-05-05 08:08 45.96300 8.63607 38022 ft 419 kts 191°
2026-05-05 08:09 45.90520 8.62423 38022 ft 420 kts 191°
2026-05-05 08:09 45.84742 8.61247 38019 ft 419 kts 191°
2026-05-05 08:10 45.79012 8.60086 38012 ft 413 kts 191°
2026-05-05 08:10 45.73344 8.58936 38008 ft 415 kts 191°
2026-05-05 08:11 45.67629 8.57780 37994 ft 415 kts 191°
2026-05-05 08:11 45.61926 8.56631 37992 ft 412 kts 191°
2026-05-05 08:12 45.56257 8.55489 37994 ft 412 kts 191°
2026-05-05 08:12 45.50571 8.54346 37993 ft 412 kts 191°
2026-05-05 08:13 45.44932 8.53215 37983 ft 412 kts 191°
2026-05-05 08:13 45.39272 8.52082 38045 ft 411 kts 192°
2026-05-05 08:14 45.33611 8.50951 38045 ft 411 kts 192°
2026-05-05 08:14 45.27951 8.49823 38035 ft 410 kts 192°
2026-05-05 08:15 45.22338 8.48706 38028 ft 410 kts 192°
2026-05-05 08:15 45.16691 8.47585 38016 ft 410 kts 192°
2026-05-05 08:16 45.11043 8.46465 37976 ft 410 kts 192°
2026-05-05 08:16 45.05396 8.45349 37965 ft 409 kts 192°
2026-05-05 08:17 44.99753 8.44235 37974 ft 410 kts 192°
2026-05-05 08:17 44.94140 8.43129 37971 ft 410 kts 192°
2026-05-05 08:18 44.88480 8.42016 37975 ft 411 kts 192°
2026-05-05 08:18 44.82811 8.40906 37962 ft 411 kts 192°
2026-05-05 08:19 44.77136 8.39794 37973 ft 412 kts 192°
2026-05-05 08:19 44.71475 8.38686 37549 ft 414 kts 192°
2026-05-05 08:20 44.68629 8.38131 37275 ft 413 kts 192°
2026-05-05 08:20 44.65776 8.37576 37002 ft 414 kts 192°
2026-05-05 08:20 44.62918 8.37019 36740 ft 415 kts 192°
2026-05-05 08:20 44.60060 8.36463 36479 ft 415 kts 192°
2026-05-05 08:21 44.58171 8.36096 36308 ft 414 kts 192°
2026-05-05 08:21 44.55314 8.35541 36054 ft 415 kts 192°
2026-05-05 08:21 44.52456 8.34986 35798 ft 415 kts 192°
2026-05-05 08:21 44.49598 8.34431 35546 ft 415 kts 192°
2026-05-05 08:22 44.45819 8.33701 35232 ft 413 kts 192°
2026-05-05 08:22 44.42973 8.33151 34987 ft 413 kts 192°
2026-05-05 08:22 44.40142 8.32604 34748 ft 413 kts 192°
2026-05-05 08:22 44.38254 8.32239 34577 ft 413 kts 192°
2026-05-05 08:23 44.35404 8.31676 34086 ft 413 kts 194°
2026-05-05 08:23 44.32663 8.30586 33416 ft 407 kts 206°
2026-05-05 08:23 44.30182 8.28751 32814 ft 402 kts 217°
2026-05-05 08:23 44.28034 8.26272 32236 ft 402 kts 227°
2026-05-05 08:24 44.25752 8.22167 31500 ft 408 kts 235°
2026-05-05 08:24 44.24670 8.19964 31127 ft 409 kts 235°
2026-05-05 08:24 44.23050 8.16681 30589 ft 412 kts 235°
2026-05-05 08:24 44.21424 8.13399 30065 ft 410 kts 235°
2026-05-05 08:25 44.19827 8.10185 29438 ft 408 kts 234°
2026-05-05 08:25 44.18218 8.06956 28840 ft 403 kts 234°
2026-05-05 08:25 44.16630 8.03771 28241 ft 398 kts 234°
2026-05-05 08:25 44.15056 8.00617 27661 ft 396 kts 234°
2026-05-05 08:26 44.13484 7.97473 27058 ft 394 kts 235°
2026-05-05 08:26 44.11926 7.94359 26531 ft 390 kts 235°
2026-05-05 08:26 44.10385 7.91280 25980 ft 385 kts 235°
2026-05-05 08:26 44.08860 7.88237 25431 ft 381 kts 235°
2026-05-05 08:27 44.07351 7.85227 24917 ft 379 kts 234°
2026-05-05 08:27 44.05863 7.82266 24391 ft 378 kts 235°
2026-05-05 08:27 44.04366 7.79292 23878 ft 374 kts 234°
2026-05-05 08:27 44.02876 7.76328 23360 ft 374 kts 234°
2026-05-05 08:28 44.01383 7.73365 22631 ft 375 kts 234°
2026-05-05 08:28 43.99879 7.70383 21736 ft 378 kts 234°
2026-05-05 08:28 43.98371 7.67386 20874 ft 379 kts 234°
2026-05-05 08:28 43.96859 7.64385 20014 ft 380 kts 234°
2026-05-05 08:29 43.95342 7.61380 19195 ft 381 kts 234°
2026-05-05 08:29 43.93839 7.58407 18420 ft 382 kts 234°
2026-05-05 08:29 43.92314 7.55395 17562 ft 382 kts 234°
2026-05-05 08:30 43.89353 7.49551 16982 ft 354 kts 234°
2026-05-05 08:30 43.87971 7.46830 16767 ft 338 kts 234°
2026-05-05 08:30 43.86401 7.44457 15976 ft 333 kts 218°
2026-05-05 08:30 43.84602 7.42575 15683 ft 312 kts 227°
2026-05-05 08:31 43.83434 7.40177 15514 ft 293 kts 244°
2026-05-05 08:31 43.82652 7.37669 15361 ft 275 kts 246°
2026-05-05 08:31 43.82231 7.35199 15254 ft 265 kts 268°
2026-05-05 08:31 43.82674 7.32763 15145 ft 263 kts 294°
2026-05-05 08:32 43.83900 7.30881 14893 ft 269 kts 322°
2026-05-05 08:32 43.85641 7.30024 14766 ft 268 kts 351°
2026-05-05 08:32 43.87485 7.30366 14447 ft 272 kts 20°
2026-05-05 08:32 43.89009 7.31872 14199 ft 274 kts 51°
2026-05-05 08:33 43.89873 7.34214 13975 ft 275 kts 82°
2026-05-05 08:33 43.89867 7.36799 13742 ft 265 kts 111°
2026-05-05 08:33 43.89061 7.38999 13476 ft 250 kts 138°
2026-05-05 08:33 43.87753 7.40417 13219 ft 240 kts 160°
2026-05-05 08:34 43.86257 7.41457 12958 ft 241 kts 159°
2026-05-05 08:34 43.84773 7.42504 12694 ft 238 kts 159°
2026-05-05 08:34 43.83302 7.43552 12438 ft 239 kts 158°
2026-05-05 08:34 43.81819 7.44610 12188 ft 240 kts 158°
2026-05-05 08:35 43.80353 7.45653 11914 ft 234 kts 158°
2026-05-05 08:35 43.78893 7.46696 11672 ft 238 kts 158°
2026-05-05 08:35 43.77418 7.47753 11408 ft 238 kts 158°
2026-05-05 08:35 43.75961 7.48799 11167 ft 235 kts 158°
2026-05-05 08:36 43.74509 7.49837 10995 ft 234 kts 158°
2026-05-05 08:36 43.73076 7.50858 10970 ft 241 kts 158°
2026-05-05 08:36 43.71470 7.51985 10967 ft 277 kts 157°
2026-05-05 08:36 43.69683 7.53247 10964 ft 294 kts 155°
2026-05-05 08:37 43.68093 7.55050 10970 ft 301 kts 132°
2026-05-05 08:37 43.67102 7.57616 10973 ft 308 kts 112°
2026-05-05 08:37 43.66397 7.60417 10960 ft 309 kts 112°
2026-05-05 08:37 43.65694 7.63223 10961 ft 309 kts 112°
2026-05-05 08:38 43.64987 7.66021 10963 ft 309 kts 112°
2026-05-05 08:38 43.64273 7.68819 10964 ft 309 kts 113°
2026-05-05 08:38 43.63565 7.71578 10962 ft 309 kts 113°
2026-05-05 08:38 43.62846 7.74372 10963 ft 309 kts 113°
2026-05-05 08:39 43.62020 7.77092 10941 ft 305 kts 127°
2026-05-05 08:39 43.60607 7.79142 10859 ft 287 kts 152°
2026-05-05 08:39 43.58866 7.80161 10719 ft 261 kts 174°
2026-05-05 08:39 43.57140 7.80244 10502 ft 241 kts 193°
2026-05-05 08:40 43.55586 7.79571 10151 ft 232 kts 211°
2026-05-05 08:40 43.54285 7.78252 9920 ft 233 kts 228°
2026-05-05 08:40 43.53337 7.76476 9768 ft 229 kts 238°
2026-05-05 08:40 43.52481 7.74659 9634 ft 229 kts 237°
2026-05-05 08:41 43.51598 7.72827 9503 ft 229 kts 237°
2026-05-05 08:41 43.50712 7.70999 9374 ft 230 kts 237°
2026-05-05 08:41 43.49782 7.69070 9262 ft 259 kts 238°
2026-05-05 08:41 43.48778 7.66932 9131 ft 267 kts 238°
2026-05-05 08:42 43.47769 7.64801 9020 ft 264 kts 238°
2026-05-05 08:42 43.46751 7.62681 8743 ft 268 kts 238°
2026-05-05 08:42 43.45713 7.60538 8209 ft 268 kts 237°
2026-05-05 08:42 43.44728 7.58427 7698 ft 264 kts 243°
2026-05-05 08:43 43.44056 7.56092 7173 ft 264 kts 255°
2026-05-05 08:43 43.43748 7.53592 6669 ft 265 kts 262°
2026-05-05 08:43 43.43523 7.51089 6141 ft 263 kts 262°
2026-05-05 08:43 43.43302 7.48612 5612 ft 260 kts 262°
2026-05-05 08:44 43.43085 7.46141 5091 ft 261 kts 263°
2026-05-05 08:44 43.42871 7.43667 4563 ft 260 kts 263°
2026-05-05 08:44 43.42660 7.41187 4140 ft 260 kts 263°
2026-05-05 08:44 43.42454 7.38762 4007 ft 250 kts 263°
2026-05-05 08:45 43.42246 7.36331 3989 ft 259 kts 262°
2026-05-05 08:45 43.42044 7.33961 3988 ft 246 kts 262°
2026-05-05 08:45 43.41849 7.31696 3984 ft 231 kts 263°
2026-05-05 08:45 43.41664 7.29550 3990 ft 227 kts 263°
2026-05-05 08:46 43.41476 7.27381 3992 ft 224 kts 262°
2026-05-05 08:46 43.41300 7.25333 3994 ft 208 kts 263°
2026-05-05 08:46 43.41132 7.23383 4024 ft 206 kts 262°
2026-05-05 08:46 43.40962 7.21447 3995 ft 204 kts 262°
2026-05-05 08:47 43.40793 7.19520 3994 ft 204 kts 262°
2026-05-05 08:47 43.40620 7.17553 3994 ft 205 kts 262°
2026-05-05 08:47 43.40459 7.15711 3989 ft 186 kts 262°
2026-05-05 08:47 43.40313 7.14030 3997 ft 174 kts 262°
2026-05-05 08:48 43.40166 7.12339 3995 ft 179 kts 262°
2026-05-05 08:48 43.40017 7.10657 3997 ft 176 kts 262°
2026-05-05 08:48 43.39868 7.08998 3995 ft 174 kts 262°
2026-05-05 08:48 43.39721 7.07361 3999 ft 173 kts 262°
2026-05-05 08:49 43.39574 7.05722 3991 ft 170 kts 262°
2026-05-05 08:49 43.39440 7.04221 3988 ft 149 kts 262°
2026-05-05 08:49 43.39317 7.02830 3997 ft 150 kts 262°
2026-05-05 08:49 43.39190 7.01409 3997 ft 149 kts 262°
2026-05-05 08:50 43.39061 6.99986 3997 ft 150 kts 263°
2026-05-05 08:50 43.38935 6.98560 4002 ft 151 kts 262°
2026-05-05 08:50 43.38884 6.97134 3988 ft 151 kts 281°
2026-05-05 08:50 43.39470 6.95956 3995 ft 156 kts 325°
2026-05-05 08:51 43.40555 6.95636 4009 ft 166 kts 356°
2026-05-05 08:51 43.41706 6.95635 3997 ft 164 kts 357°
2026-05-05 08:51 43.42824 6.95634 4004 ft 164 kts 356°
2026-05-05 08:51 43.43963 6.95616 3996 ft 162 kts 356°
2026-05-05 08:52 43.45083 6.95594 4001 ft 158 kts 356°
2026-05-05 08:52 43.46168 6.95572 3996 ft 156 kts 356°
2026-05-05 08:52 43.47253 6.95869 3995 ft 163 kts 32°
2026-05-05 08:52 43.48063 6.96908 4002 ft 160 kts 45°
2026-05-05 08:53 43.48853 6.98016 3998 ft 161 kts 45°
2026-05-05 08:53 43.49643 6.99115 4008 ft 164 kts 44°
2026-05-05 08:53 43.50447 7.00222 3999 ft 160 kts 44°
2026-05-05 08:53 43.51240 7.01305 4001 ft 163 kts 43°
2026-05-05 08:54 43.52040 7.02394 4000 ft 161 kts 44°
2026-05-05 08:54 43.52837 7.03486 4005 ft 165 kts 43°
2026-05-05 08:54 43.53650 7.04597 4005 ft 165 kts 43°
2026-05-05 08:54 43.54462 7.05709 3998 ft 161 kts 44°
2026-05-05 08:55 43.55260 7.06801 4000 ft 162 kts 43°
2026-05-05 08:55 43.56059 7.07893 3951 ft 164 kts 43°
2026-05-05 08:55 43.56869 7.08998 3751 ft 163 kts 44°
2026-05-05 08:55 43.57675 7.10097 3531 ft 161 kts 44°
2026-05-05 08:56 43.58461 7.11173 3316 ft 158 kts 44°
2026-05-05 08:56 43.59233 7.12232 3104 ft 156 kts 44°
2026-05-05 08:56 43.59997 7.13281 2893 ft 156 kts 44°
2026-05-05 08:56 43.60764 7.14333 2695 ft 155 kts 44°
2026-05-05 08:57 43.61526 7.15352 2476 ft 151 kts 43°
2026-05-05 08:57 43.62283 7.16357 2259 ft 151 kts 43°
2026-05-05 08:57 43.63081 7.17436 1296 ft 174 kts 43°
2026-05-05 08:57 43.63964 7.18682 417 ft 181 kts 44°
2026-05-05 08:58 43.64785 7.19814 155 ft 155 kts 45°
2026-05-05 08:58 43.65476 7.20798 34 ft 130 kts 47°
2026-05-05 08:58 43.66107 7.21636 36 ft 130 kts 38°
2026-05-05 08:58 43.66781 7.22484 75 ft 136 kts 38°
2026-05-05 08:59 43.67450 7.23372 303 ft 122 kts 44°
2026-05-05 08:59 43.67989 7.24306 156 ft 140 kts 57°
2026-05-05 08:59 43.68322 7.25528 318 ft 132 kts 73°
2026-05-05 08:59 43.68391 7.26823 360 ft 137 kts 89°
2026-05-05 09:00 43.68184 7.28117 433 ft 142 kts 106°
2026-05-05 09:00 43.67645 7.29287 506 ft 150 kts 128°
2026-05-05 09:00 43.66790 7.30016 810 ft 141 kts 151°
2026-05-05 09:00 43.65855 7.30465 938 ft 145 kts 156°
2026-05-05 09:01 43.64925 7.30949 1106 ft 142 kts 150°
2026-05-05 09:01 43.64072 7.31627 1256 ft 142 kts 141°
2026-05-05 09:01 43.63296 7.32498 1407 ft 144 kts 135°
2026-05-05 09:01 43.62590 7.33457 1603 ft 141 kts 133°
2026-05-05 09:02 43.61926 7.34450 1794 ft 141 kts 133°
2026-05-05 09:02 43.61278 7.35459 1979 ft 140 kts 133°
2026-05-05 09:02 43.60635 7.36470 2164 ft 139 kts 134°
2026-05-05 09:02 43.59959 7.37483 2340 ft 156 kts 147°
2026-05-05 09:03 43.59101 7.38529 2595 ft 176 kts 140°
2026-05-05 09:03 43.58337 7.39914 2823 ft 190 kts 133°
2026-05-05 09:03 43.57610 7.41488 3150 ft 197 kts 128°
2026-05-05 09:03 43.56930 7.43150 3528 ft 201 kts 125°
2026-05-05 09:04 43.56273 7.44864 3978 ft 203 kts 124°
2026-05-05 09:04 43.55637 7.46579 4535 ft 202 kts 123°
2026-05-05 09:04 43.54984 7.48314 4912 ft 206 kts 123°
2026-05-05 09:04 43.54310 7.50078 5066 ft 209 kts 123°
2026-05-05 09:05 43.53635 7.51838 5000 ft 208 kts 123°
2026-05-05 09:05 43.52958 7.53602 4999 ft 207 kts 123°
2026-05-05 09:05 43.52291 7.55324 4996 ft 207 kts 122°
2026-05-05 09:05 43.51608 7.57077 4998 ft 207 kts 122°
2026-05-05 09:06 43.50927 7.58823 5004 ft 207 kts 122°
2026-05-05 09:06 43.50248 7.60563 4996 ft 205 kts 123°
2026-05-05 09:06 43.49571 7.62296 4999 ft 206 kts 122°
2026-05-05 09:06 43.48886 7.64036 4997 ft 207 kts 123°
2026-05-05 09:07 43.48200 7.65771 4997 ft 206 kts 123°
2026-05-05 09:07 43.47511 7.67506 4994 ft 207 kts 122°
2026-05-05 09:07 43.46831 7.69215 4995 ft 206 kts 122°
2026-05-05 09:07 43.46142 7.70945 4995 ft 206 kts 122°
2026-05-05 09:08 43.45451 7.72679 4996 ft 207 kts 122°
2026-05-05 09:08 43.44757 7.74413 4995 ft 207 kts 122°
2026-05-05 09:08 43.44060 7.76155 4990 ft 208 kts 122°
2026-05-05 09:08 43.43364 7.77893 4993 ft 207 kts 122°
2026-05-05 09:09 43.42670 7.79629 4996 ft 208 kts 122°
2026-05-05 09:09 43.42015 7.81359 4991 ft 208 kts 112°
2026-05-05 09:09 43.41955 7.83335 4998 ft 213 kts 75°
2026-05-05 09:09 43.42728 7.85036 4995 ft 211 kts 38°
2026-05-05 09:10 43.44047 7.85811 4994 ft 206 kts
2026-05-05 09:10 43.45408 7.85417 4996 ft 200 kts 327°
2026-05-05 09:10 43.46316 7.84052 4996 ft 193 kts 291°
2026-05-05 09:10 43.46547 7.82266 4995 ft 191 kts 272°
2026-05-05 09:11 43.46686 7.80464 4995 ft 190 kts 275°
2026-05-05 09:11 43.46880 7.78664 4997 ft 191 kts 277°
2026-05-05 09:11 43.47099 7.76898 4994 ft 189 kts 276°
2026-05-05 09:11 43.47324 7.75106 4997 ft 191 kts 277°
2026-05-05 09:12 43.47566 7.73312 4999 ft 190 kts 277°
2026-05-05 09:12 43.47818 7.71531 4998 ft 190 kts 278°
2026-05-05 09:12 43.48072 7.69748 5000 ft 190 kts 278°
2026-05-05 09:12 43.48330 7.67957 5001 ft 191 kts 278°
2026-05-05 09:13 43.48567 7.66163 4991 ft 190 kts 271°
2026-05-05 09:13 43.48268 7.64435 4995 ft 188 kts 238°
2026-05-05 09:13 43.47305 7.63231 5002 ft 190 kts 213°
2026-05-05 09:13 43.46217 7.62266 4978 ft 187 kts 215°
2026-05-05 09:14 43.45161 7.61254 4660 ft 184 kts 217°
2026-05-05 09:14 43.44166 7.60208 4335 ft 171 kts 219°
2026-05-05 09:14 43.43305 7.59225 4184 ft 152 kts 221°
2026-05-05 09:14 43.42542 7.58297 3969 ft 141 kts 223°
2026-05-05 09:15 43.41815 7.57355 3997 ft 150 kts 225°
2026-05-05 09:15 43.41071 7.56334 3985 ft 149 kts 226°
2026-05-05 09:15 43.40358 7.55300 3995 ft 151 kts 228°
2026-05-05 09:15 43.39667 7.54238 3993 ft 147 kts 230°
2026-05-05 09:16 43.39021 7.53185 3997 ft 148 kts 233°
2026-05-05 09:16 43.38390 7.52052 3989 ft 147 kts 236°
2026-05-05 09:16 43.37805 7.50936 3994 ft 143 kts 236°
2026-05-05 09:16 43.37224 7.49807 3991 ft 145 kts 237°
2026-05-05 09:17 43.36634 7.48597 3879 ft 178 kts 238°
2026-05-05 09:17 43.35822 7.46838 3542 ft 255 kts 240°
2026-05-05 09:17 43.34912 7.44550 3835 ft 286 kts 244°
2026-05-05 09:17 43.34072 7.42113 3986 ft 275 kts 247°
2026-05-05 09:18 43.33371 7.39760 3987 ft 258 kts 249°
2026-05-05 09:18 43.32800 7.37545 3986 ft 241 kts 252°
2026-05-05 09:18 43.32329 7.35411 3986 ft 226 kts 254°
2026-05-05 09:18 43.31940 7.33326 3989 ft 227 kts 257°
2026-05-05 09:19 43.31617 7.31209 3992 ft 226 kts 259°
2026-05-05 09:19 43.31365 7.29082 3990 ft 226 kts 262°
2026-05-05 09:19 43.31183 7.26940 3991 ft 226 kts 264°
2026-05-05 09:19 43.31070 7.24791 3990 ft 225 kts 266°
2026-05-05 09:20 43.31029 7.22638 3990 ft 227 kts 269°
2026-05-05 09:20 43.31058 7.20473 3990 ft 226 kts 271°
2026-05-05 09:20 43.31155 7.18348 3989 ft 226 kts 274°
2026-05-05 09:20 43.31323 7.16201 3990 ft 227 kts 276°
2026-05-05 09:21 43.31562 7.14056 3993 ft 227 kts 279°
2026-05-05 09:21 43.31871 7.11928 3995 ft 228 kts 281°
2026-05-05 09:21 43.32250 7.09821 3995 ft 227 kts 283°
2026-05-05 09:21 43.32699 7.07732 3993 ft 229 kts 286°
2026-05-05 09:22 43.33216 7.05669 3992 ft 229 kts 289°
2026-05-05 09:22 43.33803 7.03637 3995 ft 230 kts 291°
2026-05-05 09:22 43.34457 7.01638 3994 ft 230 kts 294°
2026-05-05 09:22 43.35189 6.99688 3991 ft 229 kts 301°
2026-05-05 09:23 43.36357 6.98238 3999 ft 236 kts 332°
2026-05-05 09:23 43.37869 6.97341 3997 ft 237 kts 335°
2026-05-05 09:23 43.39403 6.96503 4002 ft 237 kts 336°
2026-05-05 09:23 43.40941 6.95669 4000 ft 237 kts 336°
2026-05-05 09:24 43.42462 6.94833 3997 ft 234 kts 335°
2026-05-05 09:24 43.44006 6.94095 3994 ft 238 kts 351°
2026-05-05 09:24 43.45643 6.94415 4002 ft 242 kts 23°
2026-05-05 09:24 43.47054 6.95657 4003 ft 244 kts 39°
2026-05-05 09:25 43.48287 6.97228 4001 ft 246 kts 45°
2026-05-05 09:25 43.49481 6.98904 4004 ft 244 kts 44°
2026-05-05 09:25 43.50675 7.00540 3965 ft 241 kts 44°
2026-05-05 09:25 43.51853 7.02157 3708 ft 236 kts 44°
2026-05-05 09:26 43.52999 7.03728 3403 ft 229 kts 44°
2026-05-05 09:26 43.54106 7.05246 3088 ft 221 kts 45°
2026-05-05 09:26 43.55169 7.06702 2843 ft 208 kts 45°
2026-05-05 09:26 43.56151 7.08048 2546 ft 189 kts 45°
2026-05-05 09:27 43.57025 7.09245 2317 ft 165 kts 45°
2026-05-05 09:27 43.57791 7.10295 2100 ft 155 kts 45°
2026-05-05 09:27 43.58560 7.11348 1891 ft 154 kts 46°
2026-05-05 09:27 43.59316 7.12385 1684 ft 152 kts 46°
2026-05-05 09:28 43.60065 7.13411 1471 ft 151 kts 45°
2026-05-05 09:28 43.60809 7.14430 1251 ft 151 kts 46°
2026-05-05 09:28 43.61545 7.15438 1054 ft 148 kts 46°
2026-05-05 09:28 43.62271 7.16432 840 ft 146 kts 47°
2026-05-05 09:29 43.62999 7.17428 657 ft 148 kts 47°
2026-05-05 09:29 43.63725 7.18423 466 ft 147 kts 46°
2026-05-05 09:29 43.64413 7.19366 281 ft 134 kts 43°
2026-05-05 09:29 43.65049 7.20250 96 ft 125 kts 45°
2026-05-05 09:30 43.65648 7.21040 26 ft 110 kts 50°
2026-05-05 09:30 43.66111 7.21691 21 ft 82 kts 46°
2026-05-05 09:30 43.66365 7.21981 25 ft 34 kts 25°
2026-05-05 09:30 43.66478 7.22042 21 ft 0 kts 20°
2026-05-05 09:33 43.66492 7.22049 21 ft 3 kts 18°
2026-05-05 09:34 43.66508 7.22056 23 ft 2 kts 15°
2026-05-05 09:34 43.66526 7.22055 21 ft 2 kts 350°
2026-05-05 09:34 43.66531 7.22053 21 ft 0 kts 342°
2026-05-05 09:34 43.66536 7.22049 23 ft 1 kts 333°
2026-05-05 09:35 43.66553 7.22017 21 ft 10 kts 290°
2026-05-05 09:35 43.66515 7.21916 21 ft 0 kts 226°
2026-05-05 09:36 43.66514 7.21914 21 ft 1 kts 226°
2026-05-05 09:36 43.66507 7.21905 21 ft 2 kts 225°
2026-05-05 09:36 43.66497 7.21890 21 ft 8 kts 225°
2026-05-05 09:36 43.66445 7.21822 21 ft 12 kts 229°
2026-05-05 09:37 43.66378 7.21733 21 ft 16 kts 226°
2026-05-05 09:37 43.66291 7.21608 21 ft 21 kts 225°
2026-05-05 09:37 43.66179 7.21459 21 ft 23 kts 227°
2026-05-05 09:37 43.66077 7.21320 21 ft 20 kts 225°
2026-05-05 09:38 43.65989 7.21201 21 ft 18 kts 225°
2026-05-05 09:38 43.65975 7.21073 24 ft 12 kts 321°
2026-05-05 09:38 43.66067 7.21056 21 ft 14 kts 14°
2026-05-05 09:38 43.66140 7.21145 21 ft 15 kts 45°
2026-05-05 09:39 43.66207 7.21239 21 ft 6 kts 52°
2026-05-05 09:39 43.66216 7.21293 21 ft 3 kts 114°
2026-05-05 09:39 43.66196 7.21325 21 ft 0 kts 134°
2026-05-05 09:39 43.66189 7.21335 21 ft 3 kts 135°
2026-05-05 09:40 43.66188 7.21336 21 ft 0 kts 135°